Temp
-4 -4 -4 -4 -4 -4 -4 -4 -4 -4 -4 -4 -4 -4 -4 -4 -4 -4 -4 -4 -4 -4 -5 -5 -5 -5 -5 -5 -5 -5 -5 -5 -5 -5 -5 -5 -6 -6 -6 -6 -6 -6
-4 -4 -4 -4 -4 -4 -4 -4 -4 -4 -4 -4 -4 -4 -4 -4 -4 -5 -5 -5 -5 -5 -5 -5 -5 -5 -5 -5 -5 -5 -5 -5 -5 -5 -6 -6 -6 -6 -6 -6 -6 -6
-4 -4 -4 -5 -4 -4 -4 -4 -4 -4 -4 -4 -4 -4 -4 -5 -5 -5 -5 -5 -5 -5 -5 -5 -5 -5 -5 -5 -5 -5 -5 -5 -5 -6 -6 -6 -6 -6 -6 -6 -6 -6
-4 -4 -4 -4 -4 -4 -4 -3 -4 -4 -4 -4 -4 -5 -5 -5 -5 -5 -5 -5 -5 -5 -5 -5 -5 -5 -5 -5 -5 -5 -5 -5 -6 -6 -6 -6 -6 -6 -6 -6 -6 -6
-4 -4 -4 -4 -4 -4 -4 -4 -4 -4 -4 -4 -4 -5 -5 -5 -5 -5 -5 -5 -5 -5 -5 -5 -5 -5 -5 -5 -6 -6 -6 -6 -6 -6 -6 -6 -6 -6 -6 -7 -7 -7
-4 -4 -4 -4 -4 -4 -4 -4 -4 -4 -4 -4 -4 -5 -5 -5 -5 -5 -5 -5 -5 -5 -6 -6 -6 -6 -6 -6 -6 -6 -6 -6 -6 -6 -6 -6 -6 -6 -6 -6 -7 -7
-4 -4 -4 -4 -4 -4 -3 -4 -4 -4 -4 -4 -4 -5 -5 -5 -5 -5 -5 -5 -6 -6 -6 -6 -6 -6 -6 -6 -6 -6 -6 -6 -6 -6 -6 -6 -6 -6 -6 -6 -7 -7
-4 -4 -4 -4 -4 -4 -4 -4 -4 -4 -4 -4 -4 -5 -5 -5 -5 -5 -5 -5 -6 -6 -6 -6 -6 -6 -6 -6 -6 -6 -6 -6 -6 -6 -6 -6 -6 -6 -6 -6 -7 -7
-4 -4 -4 -4 -4 -4 -4 -4 -4 -4 -4 -4 -4 -4 -4 -5 -5 -5 -5 -5 -6 -6 -6 -6 -6 -6 -6 -6 -6 -6 -6 -6 -6 -6 -6 -6 -6 -6 -6 -6 -7 -6
-4 -4 -4 -4 -4 -4 -4 -4 -4 -4 -4 -4 -4 -4 -4 -4 -5 -5 -5 -5 -6 -6 -6 -6 -6 -6 -6 -6 -6 -6 -6 -6 -6 -6 -6 -6 -6 -6 -6 -6 -6 -6
-5 -5 -4 -4 -4 -4 -4 -4 -4 -4 -4 -4 -4 -4 -4 -4 -5 -5 -5 -6 -6 -6 -6 -6 -6 -6 -6 -6 -6 -6 -6 -6 -6 -6 -6 -6 -6 -6 -6 -6 -6 -6
-5 -5 -5 -4 -4 -4 -5 -4 -4 -4 -4 -4 -4 -4 -4 -4 -4 -5 -5 -6 -6 -6 -6 -6 -5 -5 -5 -5 -6 -6 -6 -6 -6 -6 -6 -6 -6 -6 -6 -6 -6 -6
-5 -5 -5 -5 -4 -4 -5 -5 -4 -4 -4 -4 -4 -4 -4 -4 -4 -5 -5 -5 -6 -6 -6 -5 -5 -5 -5 -5 -5 -6 -6 -6 -6 -6 -6 -6 -6 -6 -6 -6 -6 -6
-5 -5 -5 -4 -4 -4 -5 -5 -4 -4 -4 -4 -4 -4 -4 -4 -4 -5 -5 -5 -5 -5 -5 -5 -5 -5 -5 -5 -5 -5 -6 -6 -6 -6 -6 -6 -6 -6 -6 -6 -6 -6
-5 -5 -4 -4 -4 -4 -5 -5 -5 -4 -4 -4 -4 -4 -5 -5 -4 -5 -5 -5 -5 -5 -5 -5 -5 -5 -5 -5 -5 -5 -5 -5 -5 -5 -6 -6 -6 -6 -6 -6 -6 -6
-5 -5 -5 -4 -4 -4 -4 -5 -5 -4 -4 -4 -4 -4 -5 -5 -5 -4 -5 -5 -5 -5 -5 -5 -5 -5 -5 -5 -5 -5 -5 -5 -5 -5 -5 -6 -6 -6 -6 -6 -6 -6
-5 -5 -5 -5 -4 -4 -4 -4 -4 -4 -4 -4 -5 -4 -4 -5 -5 -5 -5 -5 -5 -5 -5 -5 -5 -5 -5 -5 -5 -5 -5 -5 -5 -5 -5 -5 -6 -6 -6 -6 -6 -6
-6 -5 -5 -5 -4 -4 -4 -4 -4 -4 -4 -4 -5 -5 -4 -5 -5 -5 -5 -5 -5 -5 -5 -5 -5 -5 -5 -5 -5 -5 -5 -5 -5 -5 -5 -5 -5 -6 -6 -6 -6 -6
-6 -6 -5 -5 -5 -5 -5 -5 -4 -4 -4 -4 -4 -5 -4 -4 -5 -5 -5 -5 -5 -5 -5 -5 -5 -5 -5 -5 -5 -5 -5 -5 -5 -5 -5 -5 -5 -6 -6 -6 -6 -6
-6 -6 -5 -5 -5 -5 -5 -5 -4 -4 -4 -4 -4 -4 -4 -4 -5 -5 -5 -5 -5 -5 -5 -5 -5 -5 -5 -5 -5 -5 -5 -5 -5 -5 -5 -5 -5 -6 -6 -6 -5 -5
-6 -6 -6 -5 -5 -5 -5 -5 -4 -4 -4 -4 -4 -4 -4 -4 -5 -5 -5 -5 -5 -5 -5 -5 -5 -5 -5 -5 -5 -5 -5 -5 -5 -5 -5 -5 -6 -6 -6 -6 -5 -5
-6 -6 -6 -5 -5 -5 -5 -5 -5 -4 -4 -4 -4 -4 -4 -4 -4 -5 -5 -5 -5 -5 -5 -5 -5 -5 -5 -5 -5 -5 -5 -5 -5 -5 -5 -5 -6 -6 -6 -6 -5 -5
-6 -6 -6 -6 -6 -5 -5 -5 -5 -4 -4 -4 -4 -4 -4 -4 -4 -5 -5 -5 -5 -5 -5 -5 -5 -5 -5 -5 -5 -5 -5 -4 -5 -5 -5 -5 -6 -6 -6 -5 -5 -5
-6 -6 -6 -6 -6 -6 -5 -5 -5 -5 -5 -4 -4 -4 -4 -4 -4 -5 -5 -5 -5 -5 -5 -5 -5 -5 -5 -5 -5 -5 -4 -4 -5 -5 -5 -5 -6 -6 -6 -5 -5 -5
-6 -6 -6 -6 -6 -6 -6 -5 -5 -5 -5 -5 -5 -5 -4 -4 -4 -4 -4 -5 -5 -5 -5 -5 -5 -5 -5 -5 -5 -5 -4 -5 -5 -5 -5 -6 -6 -6 -6 -5 -5 -5
-6 -6 -6 -6 -6 -6 -6 -5 -5 -5 -5 -5 -5 -5 -5 -5 -5 -4 -4 -5 -5 -5 -5 -5 -5 -5 -5 -5 -5 -5 -5 -5 -5 -5 -5 -6 -6 -6 -6 -6 -6 -6
Height
5933 5935 5937 5938 5939 5940 5942 5943 5944 5945 5946 5947 5948 5949 5951 5952 5953 5954 5954 5955 5956 5956 5957 5957 5958 5958 5959 5959 5960 5960 5960 5961 5961 5962 5962 5963 5963 5964 5965 5965 5966 5966
5932 5934 5936 5937 5938 5940 5941 5942 5943 5945 5946 5947 5948 5949 5950 5951 5953 5954 5954 5955 5955 5956 5957 5957 5958 5958 5959 5959 5960 5960 5961 5961 5962 5962 5963 5963 5964 5964 5965 5966 5966 5967
5931 5933 5934 5936 5937 5939 5940 5941 5943 5944 5945 5947 5948 5949 5949 5951 5952 5953 5954 5954 5955 5956 5957 5957 5958 5958 5959 5960 5960 5961 5961 5962 5962 5963 5963 5963 5964 5965 5965 5966 5966 5967
5930 5932 5933 5934 5936 5937 5939 5940 5942 5943 5945 5946 5947 5948 5949 5950 5951 5952 5953 5954 5955 5956 5957 5957 5958 5959 5959 5960 5960 5961 5961 5962 5962 5963 5963 5963 5964 5965 5965 5966 5966 5967
5929 5930 5932 5933 5934 5936 5938 5939 5941 5943 5944 5945 5946 5947 5948 5949 5950 5951 5952 5953 5954 5955 5956 5957 5958 5959 5959 5960 5961 5961 5962 5962 5962 5963 5963 5964 5964 5964 5965 5965 5966 5966
5927 5929 5930 5931 5933 5934 5936 5938 5940 5941 5943 5944 5945 5946 5947 5948 5949 5950 5951 5953 5954 5955 5956 5957 5958 5959 5960 5960 5961 5961 5962 5962 5962 5963 5963 5963 5964 5964 5964 5965 5965 5965
5926 5928 5929 5930 5932 5933 5935 5937 5938 5940 5942 5943 5944 5945 5946 5947 5948 5950 5951 5952 5954 5955 5956 5957 5958 5959 5959 5960 5961 5961 5961 5962 5962 5962 5963 5963 5964 5964 5964 5964 5964 5964
5925 5927 5928 5929 5931 5932 5934 5935 5937 5939 5941 5942 5943 5944 5945 5946 5947 5949 5950 5952 5953 5955 5956 5957 5957 5958 5959 5960 5960 5961 5961 5962 5962 5962 5963 5963 5963 5964 5964 5964 5964 5964
5924 5926 5927 5928 5929 5931 5933 5934 5936 5938 5940 5941 5942 5943 5944 5945 5946 5948 5949 5951 5953 5954 5955 5956 5957 5958 5958 5959 5960 5960 5961 5961 5962 5962 5962 5963 5963 5964 5964 5964 5964 5964
5922 5924 5926 5927 5929 5930 5931 5933 5935 5937 5938 5940 5941 5942 5943 5944 5946 5947 5949 5950 5952 5953 5954 5955 5956 5957 5958 5959 5959 5960 5961 5961 5961 5962 5962 5962 5963 5963 5964 5964 5964 5964
5921 5923 5925 5927 5928 5929 5930 5931 5933 5935 5937 5939 5940 5941 5942 5943 5944 5946 5947 5949 5951 5952 5953 5954 5956 5956 5957 5958 5959 5960 5960 5961 5961 5961 5962 5962 5962 5963 5963 5963 5964 5964
5920 5921 5924 5926 5927 5928 5929 5930 5932 5934 5936 5937 5939 5940 5941 5942 5943 5945 5946 5948 5949 5950 5952 5953 5955 5956 5957 5957 5958 5959 5960 5960 5961 5961 5961 5962 5962 5962 5963 5963 5963 5963
5918 5920 5922 5924 5925 5926 5928 5929 5931 5932 5934 5936 5937 5939 5940 5941 5942 5943 5944 5946 5947 5949 5950 5952 5954 5955 5956 5956 5957 5958 5959 5959 5960 5960 5961 5961 5962 5962 5962 5962 5963 5963
5917 5918 5920 5921 5922 5924 5925 5927 5929 5930 5932 5934 5936 5938 5939 5940 5941 5942 5943 5944 5945 5947 5949 5951 5952 5954 5955 5956 5956 5957 5958 5958 5959 5960 5960 5961 5961 5961 5962 5962 5962 5962
5915 5916 5917 5919 5920 5921 5923 5925 5927 5928 5930 5932 5934 5936 5937 5939 5940 5941 5941 5942 5944 5946 5948 5949 5951 5953 5954 5954 5955 5956 5956 5957 5958 5959 5959 5960 5960 5960 5961 5961 5961 5961
5912 5913 5915 5916 5918 5920 5921 5923 5925 5926 5928 5930 5932 5934 5935 5937 5938 5939 5941 5942 5943 5945 5946 5948 5950 5951 5952 5953 5954 5954 5955 5956 5957 5957 5958 5959 5959 5959 5959 5959 5960 5960
5910 5911 5912 5914 5916 5918 5919 5921 5922 5924 5925 5928 5930 5931 5933 5935 5936 5938 5939 5940 5942 5943 5945 5947 5949 5950 5951 5952 5953 5953 5954 5955 5956 5956 5957 5957 5957 5958 5958 5958 5958 5958
5907 5908 5910 5912 5914 5915 5917 5918 5920 5921 5923 5925 5927 5929 5931 5933 5934 5936 5938 5939 5940 5942 5944 5946 5947 5949 5950 5951 5951 5952 5953 5953 5954 5955 5955 5956 5956 5956 5956 5956 5957 5957
5904 5905 5907 5909 5911 5913 5914 5915 5917 5919 5921 5923 5925 5926 5928 5930 5932 5934 5935 5937 5939 5940 5942 5944 5946 5947 5948 5949 5950 5951 5951 5952 5953 5953 5954 5954 5955 5955 5955 5955 5955 5955
5902 5902 5904 5906 5908 5910 5912 5913 5914 5916 5918 5920 5922 5923 5925 5927 5930 5931 5933 5935 5937 5939 5940 5942 5943 5945 5947 5947 5948 5949 5949 5950 5951 5952 5953 5953 5953 5954 5954 5953 5953 5953
5900 5900 5902 5904 5906 5908 5909 5911 5912 5914 5916 5917 5919 5920 5923 5925 5927 5928 5930 5932 5934 5936 5938 5939 5941 5943 5944 5945 5946 5947 5947 5948 5949 5950 5951 5951 5952 5952 5952 5952 5952 5952
5897 5898 5899 5901 5903 5905 5907 5908 5910 5912 5913 5914 5916 5918 5920 5922 5924 5926 5928 5930 5932 5934 5935 5937 5939 5940 5942 5942 5943 5944 5945 5946 5948 5949 5949 5949 5950 5950 5950 5950 5950 5950
5895 5896 5897 5899 5900 5902 5904 5906 5907 5909 5910 5911 5913 5915 5917 5919 5921 5923 5925 5927 5929 5931 5933 5934 5936 5938 5939 5940 5941 5942 5943 5944 5946 5946 5947 5947 5947 5947 5948 5948 5948 5948
5892 5894 5895 5896 5897 5899 5901 5903 5904 5906 5907 5908 5910 5912 5914 5916 5918 5920 5922 5924 5926 5928 5930 5931 5933 5934 5936 5937 5938 5940 5941 5942 5943 5944 5944 5945 5945 5945 5945 5945 5946 5946
5890 5891 5893 5894 5895 5896 5898 5899 5901 5903 5904 5905 5907 5908 5911 5913 5915 5917 5919 5921 5923 5925 5926 5928 5929 5931 5934 5935 5936 5938 5938 5940 5941 5941 5942 5942 5942 5942 5942 5943 5943 5943
5887 5889 5890 5891 5892 5893 5894 5896 5898 5899 5901 5902 5904 5906 5907 5909 5911 5914 5916 5918 5919 5921 5923 5925 5926 5929 5931 5933 5934 5935 5936 5937 5938 5938 5939 5939 5939 5939 5940 5940 5941 5941
Wind_Speed
23 20 20 20 20 19 18 17 16 15 14 14 13 12 12 12 12 12 11 11 11 10 10 10 10 9 9 9 8 8 7 7 7 7 6 7 7 7 7 6 6 5
25 23 22 22 21 20 19 18 17 16 15 14 13 12 12 13 13 13 13 12 12 12 11 11 11 10 10 9 9 8 8 8 8 7 7 7 7 7 7 6 6 5
27 25 24 24 23 22 21 19 18 17 16 14 13 13 13 14 14 14 14 13 13 13 12 12 11 11 10 9 8 8 8 7 7 7 7 8 8 8 7 7 7 6
29 27 26 26 25 24 22 20 19 18 17 15 14 14 14 14 15 15 15 14 14 14 14 13 13 12 11 10 9 8 7 6 6 5 6 7 8 8 8 8 8 8
30 28 28 28 27 25 23 22 21 20 18 17 16 16 15 15 15 16 16 16 16 16 16 15 14 12 11 10 9 8 7 6 5 4 4 3 4 5 7 8 9 9
31 30 30 30 29 27 25 23 23 22 20 19 18 17 16 16 16 16 17 18 18 17 17 15 13 12 10 9 7 6 5 5 4 3 3 3 3 2 2 4 6 8
31 30 30 31 30 28 26 25 24 24 23 21 20 18 18 17 17 18 19 20 19 18 17 15 13 11 10 8 7 5 4 3 2 2 2 2 3 3 3 2 1 4
31 31 31 31 30 29 27 27 26 25 24 22 21 20 20 19 19 20 21 21 21 19 17 15 14 12 10 9 7 6 5 3 2 1 0 0 1 2 2 3 3 1
31 31 31 31 30 29 28 27 27 26 25 23 22 22 21 20 20 21 23 23 22 20 18 17 15 13 12 10 9 7 6 4 4 3 2 2 2 1 1 2 2 2
31 30 31 31 30 30 29 28 27 27 26 25 24 24 22 22 22 23 24 25 24 22 20 19 17 15 13 11 10 8 7 6 5 5 5 4 4 3 3 2 2 2
30 30 30 30 30 30 29 29 27 27 27 27 26 25 24 23 23 24 26 26 25 24 22 21 18 16 14 12 11 9 8 7 7 7 7 6 6 5 5 4 4 3
31 30 29 29 30 30 30 29 28 27 28 28 27 26 25 24 24 25 27 28 28 26 24 22 20 18 15 13 11 10 9 9 9 9 8 8 7 6 6 6 5 5
30 30 29 29 30 30 30 30 28 27 28 29 28 27 26 25 25 26 28 29 30 28 26 24 21 18 16 14 12 11 10 10 10 10 10 9 8 8 7 7 6 6
30 30 30 30 30 31 31 31 29 28 28 29 29 28 28 27 26 27 29 31 31 30 27 25 21 19 16 14 12 12 11 11 11 11 11 10 9 9 8 8 7 7
30 31 31 31 31 32 31 31 30 29 28 29 29 29 29 28 27 27 29 30 31 30 28 25 22 19 16 14 13 13 12 12 12 12 12 11 10 9 9 9 9 9
31 31 31 31 31 31 31 31 31 30 30 29 29 30 30 30 29 28 29 30 30 30 29 26 23 20 18 16 14 14 14 13 13 13 13 12 11 10 10 10 10 10
30 32 32 31 31 31 31 31 31 31 31 30 30 30 31 31 30 29 28 29 30 30 30 27 24 22 19 17 15 14 14 14 14 14 14 13 12 12 12 12 11 11
28 31 32 32 31 30 31 32 32 32 32 31 30 30 31 31 31 30 29 29 30 31 30 28 26 24 21 18 16 15 15 14 14 15 14 14 14 14 14 14 13 13
26 30 31 31 31 31 31 32 32 32 32 31 30 31 31 32 32 31 30 29 29 30 30 29 27 25 22 20 17 16 15 15 15 15 15 15 14 15 15 16 15 15
25 28 30 30 31 31 31 32 32 32 32 32 32 32 32 31 32 32 31 29 29 29 30 30 29 26 24 22 19 17 16 16 16 16 16 15 15 15 16 17 17 16
25 27 29 29 30 30 31 31 32 32 32 32 33 33 32 31 32 32 32 30 29 29 30 31 30 28 26 24 21 18 17 17 17 17 16 16 16 16 17 18 18 17
26 27 28 28 28 29 30 31 31 31 32 32 33 33 32 32 32 32 32 31 30 29 30 31 31 29 28 26 24 20 19 18 17 17 17 17 17 18 18 18 18 18
28 28 27 27 28 28 30 31 30 30 31 33 33 33 32 32 32 32 32 32 31 30 30 31 32 31 30 28 26 22 20 18 18 18 18 18 18 19 19 19 18 19
29 28 26 26 27 28 29 30 30 30 31 32 33 32 32 32 32 32 32 33 32 31 31 32 32 32 31 30 27 24 21 20 20 20 20 19 19 20 19 19 19 20
31 29 26 26 27 28 29 30 31 31 31 31 32 32 31 31 32 32 32 33 33 33 32 32 32 32 31 30 27 25 23 22 22 22 21 21 21 21 21 20 20 20
31 29 27 26 27 28 29 30 31 32 31 31 31 31 31 30 31 31 32 32 34 34 33 32 32 32 30 29 28 27 25 24 24 24 23 22 22 22 22 21 21 21
Wind_Direction
213 209 207 211 214 212 209 207 205 206 206 205 204 202 203 205 206 205 203 203 203 200 199 198 195 193 190 188 189 193 200 207 211 212 214 216 215 211 206 201 200 202
214 211 209 213 217 217 214 210 209 208 209 208 206 203 204 207 208 208 206 205 204 201 201 200 199 197 195 194 194 196 201 208 213 216 217 220 222 221 219 216 214 217
214 211 210 213 217 219 217 213 211 210 210 209 207 206 206 208 209 209 207 206 203 199 197 196 193 191 187 185 185 187 193 202 211 218 221 225 228 229 230 228 224 224
215 212 211 213 217 220 218 215 212 211 211 209 208 209 207 207 209 209 207 204 198 192 188 183 178 174 168 165 163 163 166 172 182 198 213 223 230 233 234 235 233 232
215 213 212 214 218 220 219 217 214 212 211 209 209 210 209 208 208 207 204 200 191 184 178 174 169 165 162 159 157 155 153 150 148 151 161 183 210 225 231 235 239 242
216 214 213 216 219 221 220 218 216 213 211 210 210 211 211 210 209 206 201 195 187 180 176 173 169 167 165 165 163 162 161 153 143 132 121 113 112 126 186 227 238 242
218 216 216 218 220 222 221 219 218 216 214 212 211 211 211 211 208 204 198 192 186 182 179 176 173 172 172 173 172 173 176 171 158 136 107 90 81 72 65 53 270 240
222 219 219 220 222 223 223 221 219 218 217 215 213 213 212 210 207 203 197 191 188 185 183 180 179 179 179 181 184 186 192 198 204 203 194 49 51 50 43 33 23 345
227 224 222 223 224 225 225 223 221 220 219 216 215 216 215 211 207 203 197 193 190 188 186 185 186 185 186 190 193 196 201 209 223 237 252 272 296 324 341 354 359 359
229 228 226 226 227 227 227 226 223 222 221 219 218 218 217 213 209 203 198 195 193 191 190 191 192 191 192 195 198 203 209 214 225 238 249 264 276 283 290 301 308 313
230 231 230 230 230 231 231 229 225 222 222 221 221 220 219 216 210 205 200 197 196 195 195 196 196 195 196 197 201 207 215 222 228 237 245 256 266 271 275 283 289 290
232 232 232 232 233 234 234 233 229 224 222 223 223 224 223 219 213 207 202 200 199 199 199 200 199 199 199 199 202 209 218 225 230 237 246 254 262 268 272 276 281 281
234 233 232 232 234 235 236 236 233 228 224 223 224 225 226 223 217 210 205 204 203 202 203 204 203 203 203 203 207 214 221 227 230 237 246 254 261 268 272 274 276 275
237 236 234 232 232 234 235 236 235 231 227 226 225 225 227 228 223 216 211 209 207 206 207 207 206 206 207 208 214 221 228 232 233 237 245 254 262 268 272 272 271 271
239 238 237 235 233 233 234 235 236 234 231 228 226 226 227 229 227 223 218 215 211 209 210 210 208 209 211 214 220 226 234 238 240 243 248 255 262 266 268 268 268 269
239 240 240 239 236 235 235 235 235 235 233 231 229 227 227 229 230 228 224 220 216 213 212 211 210 211 215 219 223 228 236 242 246 250 253 257 261 265 266 267 267 269
239 241 241 240 239 238 237 237 235 234 234 232 231 229 228 228 231 231 228 225 221 217 215 214 212 214 218 222 225 229 236 242 247 252 257 259 262 266 267 268 270 270
241 241 241 241 240 238 238 239 238 235 234 233 232 231 229 229 230 232 231 228 225 221 219 216 216 218 222 225 228 232 238 243 246 250 255 258 261 264 269 271 272 272
244 243 242 242 242 240 239 239 239 237 235 234 233 232 230 228 229 231 232 231 228 225 222 220 220 222 226 229 231 236 243 247 249 250 252 255 258 261 266 270 273 273
246 246 244 242 243 242 241 240 241 240 237 235 234 233 231 229 229 230 232 232 230 227 225 224 223 225 229 233 235 239 247 251 253 252 253 254 255 257 261 265 270 274
248 249 247 244 243 243 242 242 242 242 241 238 236 235 233 230 229 229 230 231 231 228 226 226 226 227 232 237 238 242 248 253 255 255 256 257 257 257 259 262 267 273
249 250 249 247 245 244 244 244 244 244 243 241 238 236 234 232 231 230 229 230 230 229 228 228 228 229 233 238 241 245 249 253 256 257 257 259 260 261 262 264 267 272
249 250 250 249 247 245 244 245 245 245 244 243 242 239 236 234 233 232 230 230 230 229 228 228 229 230 233 238 242 245 249 253 257 258 257 259 262 264 265 266 268 271
250 251 250 249 248 246 245 245 246 246 245 245 245 242 238 235 234 233 232 230 230 230 229 229 230 230 233 238 242 245 249 255 258 257 257 260 262 264 266 267 268 270
249 250 250 248 248 247 245 244 245 246 247 246 246 245 242 238 236 235 233 232 231 231 230 230 231 232 234 238 243 246 251 257 258 257 257 259 261 263 265 267 268 269
248 249 249 247 247 247 246 243 243 245 247 248 248 248 246 242 238 236 235 233 232 232 232 233 233 234 235 240 244 247 251 256 257 256 255 257 259 262 265 267 268 269